Regional Weather Roundup
Issued by NWS Charleston, SC

Current Version | Previous Version | Graphics & Text | Print | Product List | Glossary On
Versions: 1 2 3 4 5 6 7 8 9 10 11 12 13 14 15 16 17 18 19 20 21 22 23 24 25 26 27 28 29 30 31 32 33 34 35 36 37 38 39 40 41 42 43 44 45 46 47 48 49 50
000
ASUS42 KCHS 231011
RWRCHS

REGIONAL WEATHER ROUNDUP
NATIONAL WEATHER SERVICE CHARLESTON SC
500 AM EST THU FEB 23 2017

NOTE: "FAIR" INDICATES FEW OR NO CLOUDS BELOW 12,000 FEET WITH NO
SIGNIFICANT WEATHER AND/OR OBSTRUCTIONS TO VISIBILITY.

NOT ALL STATIONS ARE QUALITY CONTROLLED. USE DATA WITH CAUTION...
ESPECIALLY DEWPOINT OBSERVATIONS.

SCZ027-030-031-034>040-042>050-231100-
...SOUTHEAST SOUTH CAROLINA...

CITY           SKY/WX    TMP DP  RH WIND       PRES   REMARKS
N CHARLESTON   MOCLDY    60  57  89 NE9       29.83R
WATERFRONT PRK   N/A     61  60  97 N9        29.81S
MOUNT PLEASANT FAIR      61  57  88 CALM      29.84R
JOHNS ISLAND   FAIR      63  59  88 N9        29.82S
PINOPOLIS        N/A     59  57  94 E6        29.75S
MONCKS CORNER  FAIR      59  55  88 NE7       29.84F
SUMMERVILLE    FAIR      59  55  88 N5        29.85S
BEAUFORT MCAS  CLOUDY    60  60 100 NE7       29.81S
BEAUFORT ARPT  FAIR      61  59  94 NE10      29.81R
HILTON HEAD IS PTCLDY    61  61 100 N12       29.81R
WALTERBORO     CLOUDY    59  55  88 NE5       29.84S
ALLENDALE      FAIR      59  57  94 N3        29.82S

...SOUTHERN MIDLANDS AND PEE DEE...

CITY           SKY/WX    TMP DP  RH WIND       PRES   REMARKS
GEORGETOWN     PTSUNNY   59  55  88 NE7       29.86S
KINGSTREE      FAIR      55  52  88 CALM      29.87R
ORANGEBURG     CLOUDY    58  55  90 NE8       29.85S
BARNWELL       FAIR      59  57  94 N6        29.85R
AIKEN          PTSUNNY   55  54  94 NE6       29.91R
MANNING        FAIR      55  43  62 MISG      29.86S
COLUMBIA       MOCLDY    60  55  83 N5        29.88R
SUMTER         MOCLDY    55  52  92 NE7       29.86R
FLORENCE       MOCLDY    56  54  93 NE6       29.88S
MYRTLE BEACH   CLOUDY    59  54  83 N7        29.87F
N MYRTLE BEACH MOCLDY    57  55  93 NE6       29.87S

$$

GAZ063-065-086>088-099>101-113>116-118-119-134>141-150-231100-
...SOUTHEAST GEORGIA...

CITY           SKY/WX    TMP DP  RH WIND       PRES   REMARKS
SAVANNAH ARPT  PTCLDY    62  58  86 N12       29.80R
HUNTER AAF     PTCLDY    62  62 100 N6        29.77R
FORT STEWART   MOCLDY    61  59  93 NE7       29.76S
STATESBORO     CLOUDY    61  61 100 CALM      29.81S
SYLVANIA       CLOUDY   N/A N/A N/A E6        29.82S
CLAXTON        FAIR     N/A N/A N/A NE6       29.80S

...CSRA...CENTRAL AND FAR SOUTHEAST GEORGIA...

CITY           SKY/WX    TMP DP  RH WIND       PRES   REMARKS
THOMSON        CLEAR     57  57 100 CALM      29.91S
AUGUSTA-BUSH   MOCLDY    58  56  93 N6        29.86R
AUGUSTA-DANIEL PTCLDY    59  55  87 N6        29.87R
SWAINSBORO     FAIR      59  59 100 N5        29.84R
VIDALIA        PTCLDY    61  61 100 NE6       29.80R
EASTMAN        CLOUDY    63  63 100 NE7       29.84R
HAZLEHURST     CLOUDY    63  63 100 NE6       29.78S
ALMA           CLOUDY    62  62 100 NE3       29.76S
WAYCROSS       CLOUDY    64  64 100 NE6       29.75F
JESUP          CLOUDY    63  59  88 NE6       29.77S
BAXLEY         CLOUDY    63  63 100 NE7       29.77S
BRUNSWICK      PTCLDY    63  63 100 N8        29.75S
SAINT SIMONS   PTCLDY    64  61  90 N9        29.74R

$$

SCZ027-028-034-036>038-045-046-048>050-GAZ119-141-231100-
...LAKE AND SUPPLEMENTAL COASTAL OBSERVATIONS...

STATION/POSITION TIME  TEMP    WIND        PRES    WAVE   SWELL
                       AIR SEA DIR/SP/G            HT/PER HT/PER/DIR
                 (UTC) (F)     (DEG/KT/KT) (MB)    (FT/S) (FT/S/D)
WINYAH BAY       NOT AVBL
LAKE MURRAY      0920   58      CALM  /  5 1011.2
ACE BASIN NERRS  NOT AVBL
FORT PULASKI     0948   62 61   30/  3/  7 1008.8R
SAPELO ISLAND    0900   63      50/  6     1007.0

$$

ANZ835-935-AMZ111-154-330-350-352-354-370-450-454-472-231100-
...C-MAN AND BUOY OBSERVATIONS...

STATION/POSITION TIME  TEMP    WIND        PRES    WAVE   SWELL
                       AIR SEA DIR/SP/G            HT/PER HT/PER/DIR
                 (UTC) (F)     (DEG/KT/KT) (MB)    (FT/S) (FT/S/D)
BUOY 41004       0850   70 69  100/ 16/ 19 1008.2    6/ 7   3/ 80/11
BUOY 41008       0850   65 63   50/ 10/ 12 1006.4    7/ 8   7/130/ 8
FOLLY BEACH CMAN 0900   62      20/ 11/ 12 1009.9F
CAPERS NEARSHORE 0908   61 59   30/ 12/ 16 1009.4F
FRIPP NEARSHORE  0908   63 60   30/ 12/ 16 1008.5F


STATION/POSITION TIME  TEMP    WIND        PRES    WAVE   SWELL
                       AIR SEA DIR/SP/G            HT/PER HT/PER/DIR
                 (UTC) (F)     (DEG/KT/KT) (MB)    (FT/S) (FT/S/D)
5E ST. MARYS GA  0930      63                N/A     7/ 8
FRYING PAN BUOY  0950   69 70  100/ 10/ 14 1011.0S   6/ 7   3/130/ 7
BUOY 41025       0950   68 74  180/ 14/ 16 1013.4R   4/ 9   2/ 80/ 9
CAPE LOOKOUT NC  0900   67     120/  8/  9 1012.7R
BUOY 41002       0850   67 70  110/ 21/ 23 1011.3    6/ 6   3/ 40/11
BUOY 41010       NOT AVBL
ST AUGUSTINE FL  1000   68 67   30/ 16/ 18 1004.9R


$$




USA.gov is the U.S. government's official web portal to all federal, state and local government web resources and services.